Terug naar catalogus

STARLINK-3569

ActiefCommunicatieVLEO
NORAD 51811·PAYLOAD·🇺🇸 United States

Gelanceerd Feb 25, 2022 vanaf Vandenberg Space Force Base

Loading…

Volgende Passages (komende 24 uur)

TLE

VersSource: CelesTrak SupGP

Epoch: Sep 15, 2026, 01:59 UTC

1 51811C 22017AV  26258.08312500 -.00015312  00000+0 -45250-3 0  2580
2 51811  53.1581 195.1512 0001408  82.2070 216.3143 15.34390466    19

Volg STARLINK-3569 in realtime met AllMySat

Download on the App Store